CET,Max TemperatureF,Mean TemperatureF,Min TemperatureF,Max Dew PointF,MeanDew PointF,Min DewpointF,Max Humidity, Mean Humidity, Min Humidity, Max Sea Level PressureIn, Mean Sea Level PressureIn, Min Sea Level PressureIn, Max VisibilityMiles, Mean VisibilityMiles, Min VisibilityMiles, Max Wind SpeedMPH, Mean Wind SpeedMPH, Max Gust SpeedMPH,PrecipitationIn, CloudCover, Events, WindDirDegrees
2013-11-1,54,52,50,52,50,46,100,91,82,30.01,29.88,29.65,19,6,4,18,14,31,0.04,6,Rain,193
2013-11-2,55,52,48,52,50,46,100,93,77,29.65,29.52,29.42,9,6,2,21,9,,0.02,7,Rain,191
2013-11-3,53,50,46,47,43,39,93,77,61,29.54,29.48,29.42,19,7,4,27,18,36,0.20,4,Rain-Thunderstorm,228
2013-11-4,54,50,45,52,45,37,100,87,60,29.42,29.17,28.94,16,6,3,24,13,34,0.51,6,Rain,276
2013-11-5,50,44,37,49,42,36,100,88,67,29.45,29.34,29.21,19,7,3,21,11,31,0.24,6,Rain-Thunderstorm,219
2013-11-6,59,53,47,55,48,40,100,85,64,29.56,29.49,29.36,14,6,3,28,13,45,0.08,6,Rain,241
2013-11-7,54,51,48,56,50,45,100,88,70,29.78,29.67,29.50,19,7,3,29,16,40,0.00,5,Rain,247
2013-11-8,52,46,39,49,45,41,100,93,76,29.81,29.71,29.53,12,6,2,14,6,,0.02,6,Rain,175
2013-11-9,51,46,41,48,43,39,100,83,63,29.79,29.67,29.53,18,7,3,23,14,29,0.31,5,Rain,233
2013-11-10,49,43,37,43,39,36,100,86,66,30.21,29.84,29.59,19,8,6,14,6,24,0.12,4,Rain,291
2013-11-11,49,42,35,43,39,35,100,83,57,30.36,30.30,30.24,17,7,2,20,8,32,0.02,5,,186
2013-11-12,50,46,42,50,44,39,100,94,81,30.39,30.24,30.18,18,5,1,17,12,,0.08,7,Rain,232
2013-11-13,54,46,37,45,40,36,100,90,55,30.51,30.43,30.30,15,6,1,8,4,,0.00,3,,230
2013-11-14,50,44,38,47,43,41,100,88,75,30.27,30.10,30.01,9,6,3,16,11,23,0.31,6,Rain,248
2013-11-15,53,43,33,45,40,34,100,92,67,30.50,30.37,30.21,13,5,0,11,4,,0.00,3,Fog,7
2013-11-16,44,38,32,45,41,33,100,100,93,30.49,30.44,30.33,2,1,0,9,4,,0.00,8,Fog,179
2013-11-17,46,44,42,45,44,43,100,97,92,30.35,30.24,30.06,3,2,1,7,3,,0.00,8,,110
2013-11-18,45,43,41,43,40,37,100,86,72,30.06,29.84,29.71,5,4,2,15,7,,0.00,8,,189
2013-11-19,48,42,35,45,40,34,100,90,76,29.89,29.77,29.65,19,5,1,15,8,18,0.12,6,Rain,328
2013-11-20,42,36,30,38,35,32,100,88,63,29.90,29.62,29.36,16,6,1,21,9,32,0.12,6,Fog-Rain,189
2013-11-21,41,37,33,36,34,32,93,87,72,29.83,29.61,29.36,16,7,6,14,10,,0.00,7,,61
2013-11-22,43,38,32,39,36,32,93,86,75,30.06,29.94,29.83,19,7,6,14,7,,0.00,7,Rain,19
2013-11-23,46,40,35,39,37,34,93,85,61,30.21,30.13,30.06,16,7,6,12,6,,0.00,8,,11
2013-11-24,47,40,34,45,39,35,100,84,64,30.42,30.28,30.18,17,7,4,13,5,,0.00,6,Rain,357
2013-11-25,46,42,37,41,37,34,100,85,70,30.57,30.49,30.42,19,8,6,13,5,,0.04,5,Rain,350
2013-11-26,47,41,35,43,39,36,100,91,75,30.60,30.57,30.54,19,7,6,8,3,,0.01,6,Rain,317
2013-11-27,48,42,37,46,43,37,100,93,73,30.54,30.49,30.48,18,5,1,13,5,,0.00,7,,226
2013-11-28,51,48,44,50,46,41,100,94,75,30.51,30.49,30.48,12,5,1,7,4,,0.02,8,Rain,312
2013-11-29,49,45,41,46,41,36,95,83,64,30.48,30.18,29.95,19,6,3,22,9,38,0.08,7,Rain,266
2013-11-30,50,44,37,45,41,37,100,89,61,30.36,30.15,29.92,13,6,0,17,8,,0.03,6,Fog-Rain,327